Regional Weather Roundup
Issued by NWS Northern Indiana

Home | Current Version | Previous Version | Graphics & Text | Print | Product List | Glossary On
Versions: 1 2 3 4 5 6 7 8 9 10 11 12 13 14 15 16 17 18 19 20 21 22 23 24 25 26 27 28 29 30 31 32 33 34 35 36 37 38 39 40 41 42 43 44 45 46 47 48 49 50
000
ASUS43 KIWX 230410
RWRIWX

KIWX WEATHER ROUNDUP
NATIONAL WEATHER SERVICE NORTHERN INDIANA
1200 AM EDT MON OCT 23 2017

NOTE: "FAIR" INDICATES FEW OR NO CLOUDS BELOW 12,000 FEET WITH NO
SIGNIFICANT WEATHER AND/OR OBSTRUCTIONS TO VISIBILITY.

* THESE STATIONS ARE NOT UNDER NWS QUALITY CONTROL. THEY ALSO MAY NOT
  REPORT WEATHER SUCH AS PRECIPITATION OR FOG.

INZ001>027-230500-
NORTHERN INDIANA

CITY           SKY/WX    TMP DP  RH WIND       PRES   REMARKS
GARY*          HVY RAIN  56  56  97 N9        30.01F
VALPARAISO     LGT RAIN  57  55  93 N6        29.99F
MICHIGAN CITY* CLOUDY    54  54 100 N3        30.00F
LAPORTE*       CLOUDY    55  55  99 N7        30.00S
KNOX*          CLOUDY    55  55 100 CALM      29.99F
SOUTH BEND     CLOUDY    56  56 100 N5        29.99F
GOSHEN         CLOUDY    64  60  87 NW3       29.98F
MONTICELLO*    CLOUDY    58  56  94 N7        29.96F
LOGANSPORT*    CLOUDY    66  55  68 S3        29.96F
WARSAW*        CLOUDY    68  55  64 S3        29.98F
AUBURN*        CLOUDY    68  50  52 S5        30.00F
FORT WAYNE     CLOUDY    66  51  58 S10       30.00F
HUNTINGTON*    CLOUDY    66  52  59 S7        29.99F
PERU/GRISSOM   CLOUDY    68  55  62 S12       29.96F

$$
INZ028>050-230500-
CENTRAL INDIANA

CITY           SKY/WX    TMP DP  RH WIND       PRES   REMARKS
LAFAYETTE      CLOUDY    60  58  92 N7        29.96F
KOKOMO*        CLOUDY    67  55  65 SE10      29.98F
MUNCIE*        CLOUDY    69  51  52 S8G17     29.99F
INDIANAPOLIS   CLOUDY    67  55  65 SE12      29.96F

$$
MIZ043>046-050>051-056>058-064>065-071>073-077>080-230500-
SOUTHWEST LOWER MICHIGAN

CITY           SKY/WX    TMP DP  RH WIND       PRES   REMARKS
BATTLE CREEK   CLOUDY    66  62  87 S6        29.98F
BENTON HARBOR  CLOUDY    57  54  89 CALM      29.99F
COLDWATER*     MOCLDY    67  51  56 S9        29.99F
HILLSDALE*     MOCLDY    64  50  59 S7        30.01F
HOLLAND        CLOUDY    55  52  89 VRB5      30.00S
GRAND RAPIDS   CLOUDY    58  57  97 NW3       29.97F
KALAMAZOO      CLOUDY    64  60  87 W3        29.98F
STURGIS*       CLOUDY    67  55  65 S8        29.98F
THREE RIVERS*  CLOUDY    65  62  89 CALM      29.98F

$$
OHZ001>008-015>018-024>025-230500-
NORTHWEST OHIO

CITY           SKY/WX    TMP DP  RH WIND       PRES   REMARKS
WAUSEON*       FAIR      61  50  67 S7        30.02F
DEFIANCE       MOCLDY    65  49  56 S6        30.01F
FINDLAY        CLOUDY    64  47  53 S9        30.03F
TOLEDO EXPRESS CLOUDY    66  50  56 S5        30.02F
TOLEDO METCALF CLOUDY    65  49  56 SE9       30.03F
LIMA           CLOUDY    63  49  60 S9        30.03F

$$
AND FOR LAKE MICHIGAN COASTAL AND OPEN LAKE BUOY OBSERVATIONS

STATION/POSITION TEMP    WIND        PRES    VSBY  WAVE
                 AIR SEA DIR/SP/G                  HT/PER
                 (F)     (DEG/KT/KT) (MB)    (MI)  (FT/S)
CALUMET HARBOR    54     340/  8/ 11 1015.7F
MICHIGAN CITY     56     360/ 13/ 14   N/A
BURNS HARBOR      56      20/ 11/ 16 1016.3
SAINT JOSEPH      57      10/  8/ 12 1015.9
SOUTH LAKE BUOY   55 60  360/ 12/ 14 1016.2F         3/ 5
4 MI NW BRIDGMAN  57 59   40/ 12/ 16 1016.1          5/ 6
MICHIGAN CITY     56 58   30/ 12/ 14   N/A           5/ 6

$$
&&




USA.gov is the U.S. government's official web portal to all federal, state and local government web resources and services.